Weather History for Chicago Lansing, IL

Change the Weather History Date:

Wednesday, February 13, 2013

  Actual Average (KMDW) Record (KMDW)
Temperature  
Mean Temperature 32 °F 28 °F  
Max Temperature 45 °F 35 °F 63 °F (1938)
Min Temperature 19 °F 21 °F -5 °F (1988)
Degree Days  
Heating Degree Days 33 37  
Month to date heating degree days 498  
Since 1 July heating degree days 3994  
Cooling Degree Days 0 0  
Month to date cooling degree days 0  
Year to date cooling degree days 0  
Moisture  
Dew Point 26 °F    
Average Humidity 80    
Maximum Humidity 96    
Minimum Humidity 56    
Precipitation  
Precipitation 0.00 in 0.07 in 0.78 in (1949)
Month to date precipitation 0.79  
Year to date precipitation 2.85  
Sea Level Pressure  
Sea Level Pressure 29.79 in    
Wind  
Wind Speed 6 mph (SW)    
Max Wind Speed 16 mph    
Max Gust Speed 17 mph    
Visibility 8 miles    
Events      
T = Trace of Precipitation, MM = Missing Value Source: NWS Daily Summary

Daily Weather History Graph

Daily Weather History Graph

Search for Another Location

Airport:

Trip Planner

Search our weather history database for the weather conditions in past years. The results will help you decide how hot, cold, wet, or windy it might be!

Date:

Astronomy

Feb. 13, 2013 Rise Set
Actual Time 6:47 AM CST 5:21 PM CST
Civil Twilight 6:19 AM CST 5:50 PM CST
Nautical Twilight 5:46 AM CST 6:22 PM CST
Astronomical Twilight 5:14 AM CST 6:54 PM CST
Moon 8:13 AM CST (2/13) 9:27 PM CST (2/13)
Length of Visible Light 11h 31m
Length of Day
10h 33m
Waxing Crescent, 14% of the Moon is Illuminated
Feb 13
Waxing Crescent
Feb 17
First Quarter
Feb 25
Full
Mar 4
Last Quarter
Mar 11
New

Hourly Weather History & Observations

Time (CST) Temp. Windchill Dew Point Humidity Pressure Visibility Wind Dir Wind Speed Gust Speed Precip Events Conditions
12:15 AM 19.4 °F 10.4 °F 17.2 °F 91% 29.94 in 7.0 mi South 6.9 mph - N/A   Clear
12:35 AM 20.3 °F 15.4 °F 18.5 °F 93% 29.93 in 7.0 mi South 3.5 mph - N/A   Clear
12:55 AM 21.2 °F 16.4 °F 19.4 °F 93% 29.92 in 7.0 mi South 3.5 mph - N/A   Clear
1:15 AM 20.8 °F 16.0 °F 18.7 °F 91% 29.91 in 7.0 mi South 3.5 mph - N/A   Clear
1:35 AM 21.0 °F - 19.0 °F 92% 29.91 in 7.0 mi Calm Calm - N/A   Clear
1:55 AM 21.2 °F - 19.2 °F 92% 29.90 in 5.0 mi Calm Calm - N/A   Clear
2:15 AM 21.4 °F - 19.4 °F 92% 29.90 in 7.0 mi Calm Calm - N/A   Clear
2:35 AM 21.6 °F - 19.4 °F 91% 29.90 in 7.0 mi Calm Calm - N/A   Clear
2:55 AM 21.9 °F - 19.9 °F 92% 29.89 in 7.0 mi Calm Calm - N/A   Clear
3:15 AM 22.5 °F - 20.5 °F 92% 29.88 in 7.0 mi Calm Calm - N/A   Clear
3:35 AM 21.7 °F - 20.1 °F 93% 29.87 in 5.0 mi Calm Calm - N/A   Clear
3:55 AM 21.4 °F - 19.6 °F 93% 29.86 in 5.0 mi Calm Calm - N/A   Clear
4:15 AM 21.2 °F 16.4 °F 19.6 °F 93% 29.86 in 5.0 mi South 3.5 mph - N/A   Clear
4:35 AM 22.1 °F 17.4 °F 20.7 °F 94% 29.85 in 5.0 mi SSE 3.5 mph - N/A   Clear
4:55 AM 22.5 °F 17.8 °F 21.0 °F 94% 29.84 in 4.0 mi SSE 3.5 mph - N/A   Clear
5:15 AM 21.2 °F 16.4 °F 19.4 °F 93% 29.83 in 4.0 mi South 3.5 mph - N/A   Clear
5:35 AM 21.2 °F 14.9 °F 19.9 °F 95% 29.83 in 3.0 mi South 4.6 mph - N/A   Clear
5:55 AM 21.2 °F 16.4 °F 20.1 °F 96% 29.82 in 3.0 mi South 3.5 mph - N/A   Clear
6:15 AM 21.7 °F 17.0 °F 20.7 °F 96% 29.81 in 3.0 mi South 3.5 mph - N/A   Clear
6:35 AM 21.9 °F 17.2 °F 20.8 °F 96% 29.81 in 3.0 mi South 3.5 mph - N/A   Clear
6:55 AM 21.9 °F 17.2 °F 20.8 °F 96% 29.81 in 2.0 mi South 3.5 mph - N/A   Clear
7:15 AM 21.7 °F 17.0 °F 20.7 °F 96% 29.81 in 2.0 mi South 3.5 mph - N/A   Clear
7:35 AM 22.6 °F 18.0 °F 21.4 °F 95% 29.81 in 3.0 mi South 3.5 mph - N/A   Clear
7:55 AM 25.5 °F 18.7 °F 24.3 °F 95% 29.81 in 3.0 mi SSW 5.8 mph - N/A   Clear
8:15 AM 27.1 °F 21.8 °F 25.5 °F 94% 29.81 in 3.0 mi South 4.6 mph - N/A   Clear
8:35 AM 28.4 °F 20.4 °F 26.2 °F 92% 29.81 in 4.0 mi SSW 8.1 mph - N/A   Clear
8:55 AM 30.2 °F 23.4 °F 27.7 °F 90% 29.81 in 4.0 mi SSW 6.9 mph - N/A   Clear
9:15 AM 31.5 °F 24.2 °F 28.4 °F 88% 29.81 in 5.0 mi SSW 8.1 mph - N/A   Clear
9:35 AM 33.3 °F 25.1 °F 29.7 °F 87% 29.81 in 5.0 mi SSW 10.4 mph - N/A   Clear
9:55 AM 35.6 °F 27.5 °F 28.4 °F 75% 29.81 in 7.0 mi SSW 11.5 mph - N/A   Clear
10:15 AM 36.3 °F 28.0 °F 29.8 °F 77% 29.80 in 7.0 mi SSW 12.7 mph - N/A   Clear
10:35 AM 37.2 °F 29.6 °F 29.7 °F 74% 29.80 in 10.0 mi SW 11.5 mph - N/A   Clear
10:55 AM 38.1 °F 31.7 °F 29.7 °F 72% 29.80 in 10.0 mi SW 9.2 mph - N/A   Clear
11:15 AM 39.7 °F 33.2 °F 30.0 °F 68% 29.79 in 10.0 mi SW 10.4 mph - N/A   Clear
11:35 AM 41.0 °F 33.9 °F 30.2 °F 65% 29.78 in 10.0 mi SSW 12.7 mph - N/A   Clear
11:55 AM 41.2 °F 33.7 °F 29.8 °F 64% 29.77 in 10.0 mi SSW 13.8 mph - N/A   Clear
12:15 PM 42.1 °F 34.9 °F 30.2 °F 63% 29.76 in 10.0 mi SSW 13.8 mph - N/A   Clear
12:35 PM 43.0 °F 36.0 °F 30.4 °F 61% 29.75 in 10.0 mi SW 13.8 mph - N/A   Clear
12:55 PM 43.5 °F 37.9 °F 30.6 °F 60% 29.74 in 10.0 mi SW 10.4 mph - N/A   Clear
1:15 PM 43.7 °F 36.9 °F 30.4 °F 59% 29.73 in 10.0 mi SW 13.8 mph - N/A   Clear
1:35 PM 44.4 °F 38.2 °F 29.8 °F 57% 29.73 in 10.0 mi SW 12.7 mph 17.3 mph N/A   Clear
1:55 PM 44.4 °F 38.2 °F 30.4 °F 58% 29.72 in 10.0 mi SW 12.7 mph - N/A   Clear
2:15 PM 44.8 °F 38.7 °F 30.0 °F 56% 29.72 in 10.0 mi WSW 12.7 mph 17.3 mph N/A   Clear
2:35 PM 45.3 °F 39.0 °F 30.9 °F 57% 29.72 in 10.0 mi WSW 13.8 mph 17.3 mph N/A   Clear
2:55 PM 44.6 °F 38.8 °F 30.6 °F 58% 29.72 in 10.0 mi SW 11.5 mph - N/A   Clear
3:15 PM 44.8 °F 37.7 °F 30.7 °F 58% 29.72 in 10.0 mi SW 16.1 mph - N/A   Clear
3:35 PM 44.1 °F 37.7 °F 30.2 °F 58% 29.72 in 10.0 mi WSW 12.7 mph - N/A   Clear
3:55 PM 43.7 °F 36.6 °F 30.0 °F 59% 29.72 in 10.0 mi WSW 15.0 mph - N/A   Clear
4:15 PM 43.2 °F 37.4 °F 30.4 °F 61% 29.72 in 10.0 mi WSW 10.4 mph - N/A   Clear
4:35 PM 42.1 °F 35.2 °F 28.8 °F 59% 29.73 in 10.0 mi West 12.7 mph 17.3 mph N/A   Clear
4:55 PM 41.0 °F 35.2 °F 29.3 °F 63% 29.73 in 10.0 mi West 9.2 mph - N/A   Clear
5:15 PM 39.4 °F 35.2 °F 29.3 °F 67% 29.74 in 10.0 mi West 5.8 mph - N/A   Clear
5:35 PM 39.0 °F 34.0 °F 29.1 °F 68% 29.74 in 10.0 mi WSW 6.9 mph - N/A   Clear
5:55 PM 37.9 °F 33.5 °F 29.1 °F 71% 29.75 in 10.0 mi WSW 5.8 mph - N/A   Clear
6:15 PM 37.6 °F 34.0 °F 28.8 °F 70% 29.75 in 10.0 mi WSW 4.6 mph - N/A   Clear
6:35 PM 33.4 °F 29.1 °F 27.7 °F 79% 29.76 in 10.0 mi SW 4.6 mph - N/A   Clear
6:55 PM 34.2 °F 31.2 °F 28.4 °F 79% 29.76 in 10.0 mi SW 3.5 mph - N/A   Clear
7:15 PM 32.0 °F 27.5 °F 28.0 °F 85% 29.76 in 7.0 mi SW 4.6 mph - N/A   Clear
7:35 PM 33.6 °F 28.4 °F 28.8 °F 82% 29.76 in 10.0 mi SW 5.8 mph - N/A   Clear
7:55 PM 33.1 °F 27.7 °F 28.6 °F 84% 29.77 in 10.0 mi WSW 5.8 mph - N/A   Clear
8:15 PM 33.1 °F 28.7 °F 28.9 °F 85% 29.77 in 10.0 mi WSW 4.6 mph - N/A   Clear
8:35 PM 33.4 °F 29.1 °F 29.8 °F 87% 29.76 in 10.0 mi WSW 4.6 mph - N/A   Mostly Cloudy
8:55 PM 34.2 °F 30.0 °F 30.2 °F 85% 29.76 in 10.0 mi WSW 4.6 mph - N/A   Overcast
9:15 PM 34.7 °F 30.6 °F 30.7 °F 85% 29.76 in 10.0 mi SW 4.6 mph - N/A   Overcast
9:35 PM 35.6 °F 30.7 °F 31.1 °F 84% 29.76 in 10.0 mi WSW 5.8 mph - N/A   Overcast
9:55 PM 35.1 °F 31.0 °F 31.1 °F 85% 29.76 in 10.0 mi WSW 4.6 mph - N/A   Overcast
10:15 PM 35.6 °F 31.7 °F 31.1 °F 84% 29.76 in 10.0 mi WSW 4.6 mph - N/A   Overcast
10:35 PM 35.1 °F 32.2 °F 31.1 °F 85% 29.76 in 10.0 mi WSW 3.5 mph - N/A   Overcast
10:55 PM 35.1 °F 30.1 °F 31.1 °F 85% 29.76 in 10.0 mi SW 5.8 mph - N/A   Overcast
11:15 PM 34.2 °F 28.2 °F 31.1 °F 89% 29.76 in 10.0 mi South 6.9 mph - N/A   Overcast
11:35 PM 34.0 °F 28.8 °F 31.1 °F 89% 29.76 in 7.0 mi SW 5.8 mph - N/A   Overcast
11:55 PM 33.6 °F 28.4 °F 31.1 °F 90% 29.76 in 7.0 mi SSW 5.8 mph - N/A   Overcast